Regional Weather Roundup
Issued by NWS

Home | Current Version | Previous Version | Text Only | Print | Product List | Glossary On
Versions: 1 2 3 4 5 6 7 8 9 10 11 12 13 14 15 16 17 18 19 20 21 22 23 24 25 26 27 28 29 30 31 32 33 34 35 36 37 38 39 40 41 42 43 44 45 46 47 48 49 50
000
ASUS44 KFWD 051203
RWRTX
NORTH TEXAS HOURLY WEATHER ROUNDUP
NATIONAL WEATHER SERVICE FORT WORTH TX
700 AM CDT SAT SEP 05 2015

NOTE: "FAIR" INDICATES FEW OR NO CLOUDS BELOW 12,000 FEET WITH NO
SIGNIFICANT WEATHER AND/OR OBSTRUCTIONS TO VISIBILITY.

TXZ118-119-051300-
DALLAS/FORT WORTH METROPLEX

CITY           SKY/WX    TMP DP  RH WIND       PRES   REMARKS
DFW AIRPORT    PTCLDY    79  72  79 S8        29.98R
6HR MIN TEMP:  78; 6HR MAX TEMP:  85;

DALLAS LOVE    PTCLDY    79  72  79 S9        29.99R
6HR MIN TEMP:  79; 6HR MAX TEMP:  85;

FTW MEACHAM    CLEAR     78  72  81 SE7       29.98R
6HR MIN TEMP:  78; 6HR MAX TEMP:  85;

DAL-EXECUTIVE  CLEAR     77  72  84 VRB3      29.99R
6HR MIN TEMP:  77; 6HR MAX TEMP:  82;

FTW-ALLIANCE   CLEAR     76  72  87 S3        29.98S
6HR MIN TEMP:  76; 6HR MAX TEMP:  84;

FTW-NAS-JRB    CLEAR     79  73  82 SE6       29.99R
6HR MIN TEMP:  79; 6HR MAX TEMP:  85;

ARLINGTON      CLEAR     79  71  76 SE6       29.99R
6HR MIN TEMP:  79; 6HR MAX TEMP:  85;

GRAND PRAIRIE  CLEAR     79  73  83 SE5       30.00S
ADDISON        CLEAR     79  72  78 S7        30.00R
MESQUITE       CLEAR     75  72  88 SE3       30.00R
LANCASTER      CLEAR     76  69  79 CALM      30.00S
6HR MIN TEMP:  76; 6HR MAX TEMP:  81;

$$

TXZ091>094-102>105-117-120-121-131>134-051300-
NORTH CENTRAL TEXAS

CITY           SKY/WX    TMP DP  RH WIND       PRES   REMARKS
SHRMAN/DENISON CLEAR     78  73  84 SE5       30.01R
6HR MIN TEMP:  77; 6HR MAX TEMP:  82;

BOWIE          CLEAR     72  69  89 SE5       30.00R
6HR MIN TEMP:  72; 6HR MAX TEMP:  76;

BRIDGEPORT     CLEAR     71  71  99 CALM      30.00S
6HR MIN TEMP:  70; 6HR MAX TEMP:  80;

DECATUR        CLEAR     76  70  82 SE6       30.00R
6HR MIN TEMP:  76; 6HR MAX TEMP:  81;

DENTON         CLEAR     76  71  85 S6        29.98S
6HR MIN TEMP:  76; 6HR MAX TEMP:  83;

MCKINNEY       CLEAR     77  71  82 S5        30.00R
6HR MIN TEMP:  76; 6HR MAX TEMP:  82;

ROCKWALL       CLEAR     76  73  90 S5        29.99R
6HR MIN TEMP:  76; 6HR MAX TEMP:  82;

TERRELL        CLEAR     75  73  93 SE5       30.01R
6HR MIN TEMP:  75; 6HR MAX TEMP:  80;

WAXAHACHIE     CLEAR     74  73  97 S3        30.01R
6HR MIN TEMP:  74; 6HR MAX TEMP:  81;

CLEBURNE       CLEAR     77  75  94 S7        30.01R
$$

TXZ083>090-098>101-113>116-127>130-139>142-154-155-051300-
WESTERN NORTH TEXAS

CITY           SKY/WX    TMP DP  RH WIND       PRES   REMARKS
WICHITA FALLS  CLEAR     72  68  87 SE6       29.97R
6HR MIN TEMP:  71; 6HR MAX TEMP:  77;

WF-KICKAPOO    CLEAR     77  69  76 SE7       29.99R
6HR MIN TEMP:  77; 6HR MAX TEMP:  81;

VERNON         CLEAR     76  63  63 SE6       29.97S
6HR MIN TEMP:  76; 6HR MAX TEMP:  98;

ABILENE        CLEAR     75  68  78 S9        30.00R
6HR MIN TEMP:  75; 6HR MAX TEMP:  81;

ABILENE-DYESS  PTCLDY    75  68  80 S8        29.99R
6HR MIN TEMP:  75; 6HR MAX TEMP:  82;

BRECKENRIDGE   CLEAR     77  68  75 S6        29.98R
6HR MIN TEMP:  77; 6HR MAX TEMP:  83;

MINERAL WELLS  CLEAR     74  71  91 SE8       29.98R
6HR MIN TEMP:  74; 6HR MAX TEMP:  78;

STEPHENVILLE   PTCLDY    73  69  87 S3        30.03R
6HR MIN TEMP:  73; 6HR MAX TEMP:  78;

COMANCHE       CLEAR     73  73 100 S3        30.00S
6HR MIN TEMP:  73; 6HR MAX TEMP:  80;

COLEMAN        CLEAR     73  69  85 S3        30.01R
6HR MIN TEMP:  73; 6HR MAX TEMP:  82;

BRADY          CLEAR     73  73 100 SE5       30.01R
$$

TXZ143>147-156>162-174-175-051300-
CENTRAL TEXAS

CITY           SKY/WX    TMP DP  RH WIND       PRES   REMARKS
WACO           CLOUDY    79  73  82 S12       29.99R
6HR MIN TEMP:  79; 6HR MAX TEMP:  83;

WACO-TSTC      MOCLDY    77  73  88 S6        29.99
WACO-MCGREGOR  MOCLDY    77  74  90 SE9       29.99S
6HR MIN TEMP:  77; 6HR MAX TEMP:  81;

CORSICANA      CLEAR     77  74  90 S6        30.01R
6HR MIN TEMP:  76; 6HR MAX TEMP:  81;

MEXIA          PTCLDY    75  74  95 E8        30.00R
6HR MIN TEMP:  74; 6HR MAX TEMP:  78;

HEARNE         CLOUDY    76  75  97 SE3       30.01R FOG
6HR MIN TEMP:  75; 6HR MAX TEMP:  78;

CAMERON        CLEAR     76  75  96 CALM      29.99S
6HR MIN TEMP:  76; 6HR MAX TEMP:  80;

TEMPLE         CLEAR     75  70  83 SE8       30.00S
6HR MIN TEMP:  75; 6HR MAX TEMP:  79;

KILLEEN        CLEAR     75  73  92 SE6       30.00R
6HR MIN TEMP:  74; 6HR MAX TEMP:  79;

KILLEEN-SKYLRK CLEAR     75  70  83 SE6       29.99S
6HR MIN TEMP:  75; 6HR MAX TEMP:  81;

FORT HOOD      CLEAR     75  73  94 SE7       29.99R
6HR MIN TEMP:  75; 6HR MAX TEMP:  79;

GATESVILLE     CLEAR     77  73  88 CALM      30.02R
HAMILTON       PTCLDY    75  73  92 S8        30.01S
6HR MIN TEMP:  75; 6HR MAX TEMP:  79;

$$

TXZ095>097-106>112-122>126-135>138-148>153-164>167-051300-
EAST TEXAS

CITY           SKY/WX    TMP DP  RH WIND       PRES   REMARKS
PARIS          CLEAR     73  64  73 SE6       30.02R
6HR MIN TEMP:  73; 6HR MAX TEMP:  77;

SULPHUR SPRNGS CLEAR     77  72  84 S3        30.04R
6HR MIN TEMP:  77; 6HR MAX TEMP:  81;

GILMER         PTCLDY    73  72  96 CALM      30.02R
6HR MIN TEMP:  73; 6HR MAX TEMP:  79;

MINEOLA        CLEAR     77  73  88 CALM      30.02R
TYLER          CLEAR     76  72  87 CALM      30.01R
6HR MIN TEMP:  75; 6HR MAX TEMP:  80;

LONGVIEW       FAIR      75  72  90 CALM      30.01R
6HR MIN TEMP:  75; 6HR MAX TEMP:  79;

MARSHALL       PTCLDY    76  74  92 CALM      30.04R
6HR MIN TEMP:  76; 6HR MAX TEMP:  78;

ATHENS         CLEAR     72  72 100 CALM      30.00S
PALESTINE      CLEAR     75  74  96 CALM      30.02R
JACKSONVILLE   CLEAR     76  74  93 S3        30.05R
HENDERSON      CLEAR     73  72  97 CALM      30.03R
6HR MIN TEMP:  73; 6HR MAX TEMP:  77;

CENTER         FAIR      75  73  92 CALM      30.02R
6HR MIN TEMP:  74; 6HR MAX TEMP:  77;

NACOGDOCHES    CLEAR     72  70  94 CALM      30.02R
6HR MIN TEMP:  72; 6HR MAX TEMP:  77;

LUFKIN         CLEAR     72  72 100 CALM      30.02R
6HR MIN TEMP:  72; 6HR MAX TEMP:  76;

$$

SUPPLEMENTAL OBSERVATIONS (CENTRAL)

CITY           SKY/WX    TMP DP  RH WIND       PRES   REMARKS
$$

SUPPLEMENTAL OBSERVATIONS (WEST)

CITY           SKY/WX    TMP DP  RH WIND       PRES   REMARKS
$$

SUPPLEMENTAL OBSERVATIONS (EAST)

CITY           SKY/WX    TMP DP  RH WIND       PRES   REMARKS
$$

SUPPLEMENTAL OBSERVATIONS ARE A COLLECTION OF AUTOMATED INSTRUMENTS
THAT ARE MAINTAINED BY A VARIETY OF FEDERAL AND STATE AGENCIES.
CERTAIN ELEMENTS...SUCH AS HUMIDITY VALUES AND SUSTAINED WIND
SPEEDS...MAY BE APPROXIMATED.




USA.gov is the U.S. government's official web portal to all federal, state and local government web resources and services.